OBJECT AA, 42849

Orbit data source: Space-Track

You're viewing an Uncataloged Satellite

Recently launched and/or uncataloged satellites may have evolving metadata. Metadata may include but not limited to: Owner, Maufacturer, Bus, Motor, and Mission.

OBJECT AA, 42849 is a satellite in SSO that was launched on Fri, 14 Jul 2017 UTC via a SOYUZ-2-1A launch vehicle from the Tyuratam Missile And Space Complex (TTMTR). Unknown objects in Earth's orbit typically refer to objects detected orbiting the Earth but have not yet been identified or cataloged. These objects could be anything from previously untracked satellites, spent rocket stages, debris from satellite collisions, or even natural meteoroids temporarily captured by Earth's gravity.

Loading next visibility...
OBJECT AA details
Identifier
42849, 2017-042AA
Orbit
SSO
Last TLE update1 day ago
Origin
Flag of TBDGeoOptics (TBD)
ManufacturerTyvak NSS
MissionNon-operational Commercial Meteo Radio Occ.
Bus & MotorCUBESAT 6U, Unknown motor
Mass10 kg wet, 10 kg dry
Launch date (UTC)
2017-07-14 (7 years ago)
Launch vehicle
SOYUZ-2-1A
Launch site
Tyuratam Missile And Space Complex (TTMTR)
Object typeUnknown
Shape & HBRBox + 2 Pan, 0.6 m
Radar Cross Section0.079 m², Medium (>0.1 m² and < 1m²)

Expand to show TLE details & history

TLE from 1 day ago
0 OBJECT AA
1 42849U 17042AA  24360.45612601  .00009833  00000-0  75919-3 0  9998
2 42849  97.3792 177.2964 0011095 136.9356 223.2739 15.01697336406189
Epoch: 2024-12-25T10:56Z
Definitive object data (Epoch: 2024-12-25T10:56:49.287Z)
Latitude-0.00004°
Longitude-81.35857°
Altitude570.34 km
Speed7.573 km/s
True Right ascension11h 49m 11s
True Declination0° 00' 00"
Sunlit
Object was in daylight at TLE epoch
Visualization TLE readout
Latitude-79.62299°
Longitude54.87552°
Altitude594.49 km
Speed7.559 km/s
Apparent Right ascension21h 39m 36s
Apparent Declination-60° 40' 31"
Sunlit
Object is in daylight
Visualization observer readout
Local Sidereal Time09:51:14
Azimuth175.997° S
Elevation-69.163°
Doppler factor1
Orbital elements
Apogee altitude566.348 km
Perigee altitude550.955 km
Semi-major axis6,936.788 km
Eccentricity0.0011095
Inclination97.3792°
RAAN177.2964°
Arg. of periapsis136.9356°
True anomaly223.18684°
Mean anomaly223.2739°
Eccentric anomaly223.23036°
Mean motion3.75669 °/min
BSTAR0.00075919
Orbital period95.83 mins
Loading maneuver chart data...

OBJECT AA Visibility forecast

Observer location: undefined°, undefined

Span
Click to sort rows by Start time (UTC) header in descending order
Start Az.
Max El. time (UTC)
Max El. Az.
Max El.
End time (UTC)
End Az.
5 mins2024-12-26 11:05:02.578Z110.731° ESE2024-12-26 11:08:02.578Z61.296° ENE17.209°2024-12-26 11:10:02.578Z28.809° NE
5 mins2024-12-26 12:40:02.578Z209.12° SW2024-12-26 12:42:02.578Z250.049° W27.493°2024-12-26 12:45:02.578Z319.05° NNW
5 mins2024-12-27 00:19:02.578Z46.322° ENE2024-12-27 00:21:02.578Z92.964° ESE27.865°2024-12-27 00:24:02.578Z155.997° SSE
|